Stations météo

réclame
Mon MeteoGroup
Berlin/Tegel, Allemagne (10382): Température de l'air & dewpoint: 12.01.2019 13:00:00 - 18.01.2019 13:00:00 (CET)Berlin/Tegel, Allemagne (10382): Température de l'air 5cm & Température de l'air -5cm: 12.01.2019 13:00:00 - 18.01.2019 13:00:00 (CET)Berlin/Tegel, Allemagne (10382): Température de l'air -20cm & Température de l'air -100cm: 12.01.2019 13:00:00 - 18.01.2019 13:00:00 (CET)Berlin/Tegel, Allemagne (10382): Vitesse du vent & gusts: 12.01.2019 13:00:00 - 18.01.2019 13:00:00 (CET)Berlin/Tegel, Allemagne (10382): Direction du vent: 12.01.2019 13:00:00 - 18.01.2019 13:00:00 (CET)Berlin/Tegel, Allemagne (10382): reduced air pressure: 12.01.2019 13:00:00 - 18.01.2019 13:00:00 (CET)Berlin/Tegel, Allemagne (10382): visibility: 12.01.2019 13:00:00 - 18.01.2019 13:00:00 (CET)Berlin/Tegel, Allemagne (10382): Ensoleillement: 12.01.2019 13:00:00 - 18.01.2019 13:00:00 (CET)Berlin/Tegel, Allemagne (10382): Quantités de précipitations: 12.01.2019 13:00:00 - 18.01.2019 13:00:00 (CET)
Date & Time tt [°C] td [°C] tt 5cm [°C] tt -5cm [°C] tt -20cm [°C] tt -100cm [°C] ff [km/h] ff [knt] fx [km/h] fx [knt] dd ppp [hPa] vv [km] sd [min] rr [mm]
18.01.2019 13:00:00 1,3 -3,9 3,2 1,1 2,6 5,8 21 11 27 14 W 1017,8 10 60 0,0
18.01.2019 12:00:00 0,7 -3,6 3,1 0,9 2,7 5,8 18 10 26 14 W 1017,6 50 60 0,0
18.01.2019 11:00:00 -0,2 -3,9 1,5 0,9 2,7 5,8 15 8 28 15 WNW 1017,4 50 60 0,0
18.01.2019 10:00:00 -1,2 -4,2 -1,2 0,9 2,8 5,8 16 9 29 16 WNW 1016,8 50 53 0,0
18.01.2019 09:00:00 -1,5 -5,3 -3,4 1,0 2,9 5,8 16 8 26 14 WNW 1015,4 55 0 0,0
18.01.2019 08:00:00 -1,2 -5,2 -3,0 1,1 3,0 5,8 15 8 28 15 NW 1013,9 10 0 0,0
18.01.2019 07:00:00 -0,6 -4,1 -1,7 1,2 3,1 5,8 13 7 35 19 NW 1012,2 10 0 0,1
18.01.2019 06:00:00 -0,5 -2,2 -0,9 1,3 3,2 5,8 13 7 26 14 NW 1010,8 10 0 0,0
18.01.2019 05:00:00 -0,9 -2,2 -1,4 1,3 3,4 5,8 15 8 25 13 WNW 1009,6 10 0 0,0
18.01.2019 04:00:00 -1,1 -1,6 -0,9 1,5 3,5 5,8 12 7 38 21 NNW 1008,2 2,5 0 0,1
18.01.2019 03:00:00 -0,2 -1,8 -0,2 1,8 3,7 5,8 16 9 43 23 NW 1006,7 8 0 0,2
18.01.2019 02:00:00 1,1 -0,5 0,6 2,1 3,8 5,8 24 13 41 22 W 1004,5 20 0 0,2
18.01.2019 01:00:00 1,7 -0,4 0,8 2,5 3,9 5,8 27 15 47 25 W 1003,9 15 0 0,2
18.01.2019 00:00:00 2,3 0,4 1,6 2,8 4,0 5,8 22 12 38 21 W 1003,1 9 0 0,0
17.01.2019 23:00:00 3,0 0,7 2,3 3,0 4,0 5,8 26 14 45 24 WSW 1002,3 40 0 0,0
17.01.2019 22:00:00 3,2 1,3 2,6 3,3 4,1 5,7 23 12 39 21 W 1001,5 30 0 0,0
17.01.2019 21:00:00 3,2 1,8 2,7 3,4 4,1 5,7 24 13 41 22 W 1000,6 10 0 0,1
17.01.2019 20:00:00 3,1 1,9 2,6 3,5 4,2 5,7 21 12 34 18 W 999,4 15 0 0,4
17.01.2019 19:00:00 4,0 1,3 3,0 3,6 4,2 5,7 26 14 40 22 WSW 998,6 10 0 0,1
17.01.2019 18:00:00 5,1 1,3 3,5 3,7 4,3 5,7 28 15 43 23 WSW 998,4 20 0 0,1
17.01.2019 17:00:00 5,7 0,2 4,0 3,8 4,3 5,7 16 9 31 17 SSW 998,2 50 0 0,0
17.01.2019 16:00:00 6,7 0,1 6,0 4,5 4,3 5,7 22 12 35 19 SW 998,4 50 23 0,0
17.01.2019 15:00:00 6,5 0,1 6,0 4,8 4,2 5,7 24 13 40 21 WSW 998,8 10 18 0,0
17.01.2019 14:00:00 6,4 0,9 6,7 4,6 4,1 5,7 26 14 44 24 SW 999,2 50 5 0,0
17.01.2019 13:00:00 5,9 1,0 5,9 4,7 4,0 5,7 22 12 34 18 WSW 999,6 10 0 0,0
17.01.2019 12:00:00 5,7 1,5 5,8 4,4 3,9 5,7 22 12 38 21 W 1000,2 10 0 0,0
17.01.2019 11:00:00 5,5 1,9 5,3 3,9 3,9 5,7 24 13 42 23 WSW 1000,2 10 0 0,0
17.01.2019 10:00:00 5,1 2,1 4,4 3,7 3,8 5,7 26 14 48 26 W 999,9 40 0 0,0
17.01.2019 09:00:00 5,0 2,2 4,5 3,5 3,8 5,7 28 15 44 24 WSW 999,3 10 0 0,0
17.01.2019 08:00:00 5,1 1,9 4,0 3,4 3,8 5,7 34 18 51 27 WSW 998,8 10 0 0,0
17.01.2019 07:00:00 5,3 1,3 4,6 3,2 3,8 5,7 31 17 44 24 WSW 998,2 30 0 0,0
17.01.2019 06:00:00 4,6 0,8 4,1 3,0 3,8 5,7 21 11 31 17 SW 998,2 10 0 0,0
17.01.2019 05:00:00 4,5 0,3 3,9 2,8 3,8 5,7 21 11 35 19 SW 998,1 35 0 0,0
17.01.2019 04:00:00 4,2 0,0 3,8 2,6 3,9 5,7 22 12 35 19 SW 998,3 10 0 0,0
17.01.2019 03:00:00 3,4 0,1 2,7 2,4 4,0 5,7 14 7 24 13 SSW 998,9 35 0 0,0
17.01.2019 02:00:00 3,0 -0,1 1,7 2,4 4,2 5,7 16 8 21 11 SSW 999,4 35 0 0,0
17.01.2019 01:00:00 3,4 0,1 2,0 2,7 4,4 5,7 15 8 22 12 SSW 1000,1 10 0 0,0
17.01.2019 00:00:00 3,7 0,2 2,2 3,1 4,5 5,7 16 9 29 16 SSW 1001,1 10 0 0,0
16.01.2019 23:00:00 4,5 0,1 3,2 3,6 4,7 5,7 18 10 33 18 SSW 1002,0 10 0 0,0
16.01.2019 22:00:00 4,8 0,4 3,8 4,1 4,7 5,7 21 11 31 17 SSW 1002,6 10 0 0,0
16.01.2019 21:00:00 5,4 0,8 4,9 4,5 4,8 5,7 22 12 34 18 SW 1003,4 10 0 0,0
16.01.2019 20:00:00 5,7 1,4 5,2 4,7 4,8 5,7 22 12 40 21 SW 1003,9 10 0 0,0
16.01.2019 19:00:00 6,1 2,1 5,5 4,9 4,9 5,7 26 14 42 23 SW 1004,3 10 0 0,0
16.01.2019 18:00:00 6,5 2,8 6,0 5,1 4,9 5,6 26 14 44 24 SW 1004,7 10 0 0,0
16.01.2019 17:00:00 6,8 3,3 6,2 5,3 4,9 5,6 24 13 35 19 SW 1005,2 10 0 0,0
16.01.2019 16:00:00 6,8 3,6 6,3 5,4 4,8 5,6 20 11 35 19 SW 1005,7 50 0 0,0
16.01.2019 15:00:00 6,9 3,4 6,5 5,6 4,8 5,7 21 12 31 17 SW 1006,1 45 0 0,0
16.01.2019 14:00:00 7,1 3,7 6,9 5,6 4,7 5,7 22 12 39 21 SW 1006,6 40 0 0,0
16.01.2019 13:00:00 7,3 3,9 7,1 5,5 4,6 5,7 26 14 37 20 WSW 1007,1 10 0 0,0
16.01.2019 12:00:00 6,8 3,7 6,5 5,3 4,6 5,7 22 12 34 18 SW 1007,7 30 0 0,0
16.01.2019 11:00:00 6,5 4,3 6,0 5,1 4,5 5,7 21 11 35 19 WSW 1008,4 10 0 0,0
16.01.2019 10:00:00 6,3 3,9 6,0 5,0 4,5 5,7 23 12 33 18 WSW 1008,3 20 0 0,0
16.01.2019 09:00:00 6,1 4,1 5,6 5,0 4,5 5,7 23 12 36 20 WSW 1008,4 15 0 0,0
16.01.2019 08:00:00 6,3 4,0 5,5 5,0 4,5 5,7 24 13 37 20 WSW 1008,2 15 0 0,0
16.01.2019 07:00:00 6,5 4,1 5,7 5,1 4,4 5,7 26 14 37 20 WSW 1008,1 20 0 0,0
16.01.2019 06:00:00 6,6 5,0 5,8 5,2 4,3 5,7 26 14 36 20 W 1008,1 14 0 0,0
16.01.2019 05:00:00 6,7 5,6 6,1 5,3 4,2 5,7 23 12 39 21 W 1008,4 15 0 0,2
16.01.2019 04:00:00 7,2 5,5 6,4 5,2 4,1 5,7 31 17 47 25 W 1008,3 10 0 0,0
16.01.2019 03:00:00 7,2 5,4 6,5 5,1 4,0 5,7 29 16 54 29 W 1007,8 10 0 0,0
16.01.2019 02:00:00 7,0 5,1 6,2 4,9 3,9 5,7 29 16 51 28 W 1007,2 35 0 0,0
16.01.2019 01:00:00 6,7 5,1 6,0 4,8 3,8 5,7 34 18 49 26 W 1007,2 10 0 0,0
16.01.2019 00:00:00 6,5 5,3 5,9 4,8 3,7 5,7 32 17 46 25 W 1007,2 20 0 0,3
15.01.2019 23:00:00 6,3 5,4 5,8 4,6 3,5 5,7 31 17 49 27 W 1007,4 8 0 0,3
15.01.2019 22:00:00 6,3 5,5 5,8 4,5 3,4 5,8 29 16 54 29 W 1007,3 8 0 0,0
15.01.2019 21:00:00 6,5 5,1 5,8 4,3 3,2 5,8 35 19 54 29 W 1006,8 10 0 0,0
15.01.2019 20:00:00 6,3 4,8 5,5 4,0 3,1 5,8 37 20 59 32 W 1006,5 10 0 0,0
15.01.2019 19:00:00 6,2 4,3 5,3 3,7 2,9 5,8 35 19 57 31 W 1006,2 10 0 0,0
15.01.2019 18:00:00 5,5 4,2 4,9 3,4 2,8 5,8 35 19 47 25 W 1006,6 9 0 0,0
15.01.2019 17:00:00 5,0 4,0 4,4 3,2 2,6 5,8 29 16 45 24 W 1007,1 9 0 0,0
15.01.2019 16:00:00 4,6 3,7 4,1 2,9 2,5 5,8 29 15 38 20 W 1007,4 9 0 0,2
15.01.2019 15:00:00 4,1 3,1 3,7 2,7 2,3 5,8 28 15 40 21 WSW 1007,8 10 0 0,0
15.01.2019 14:00:00 4,0 2,6 3,5 2,3 2,1 5,8 26 14 40 22 W 1008,8 10 0 0,0
15.01.2019 13:00:00 3,7 1,9 3,3 1,6 2,1 5,8 26 14 38 20 W 1009,4 10 0 0,0
15.01.2019 12:00:00 3,5 1,0 3,0 0,8 2,1 5,8 22 12 46 25 W 1009,9 10 0 0,1
15.01.2019 11:00:00 3,0 0,7 2,2 0,6 2,1 5,8 30 16 51 27 W 1010,3 15 0 0,0
15.01.2019 10:00:00 3,2 -0,4 2,7 0,6 2,2 5,8 34 18 57 31 W 1010,0 10 0 0,0
15.01.2019 09:00:00 3,0 -1,0 2,4 0,6 2,2 5,8 31 17 53 29 W 1009,9 10 0 0,0
15.01.2019 08:00:00 3,1 -1,1 2,4 0,6 2,2 5,8 30 16 46 25 W 1010,2 30 0 0,0
15.01.2019 07:00:00 2,8 -0,9 1,9 0,6 2,3 5,8 29 16 49 26 W 1010,4 10 0 0,0
15.01.2019 06:00:00 2,3 -1,0 1,4 0,6 2,3 5,8 26 14 39 21 W 1010,6 20 0 0,0
15.01.2019 05:00:00 1,8 -1,9 0,5 0,6 2,4 5,8 24 13 45 24 W 1010,6 10 0 0,0
15.01.2019 04:00:00 1,9 -2,1 0,5 0,6 2,4 5,9 24 13 40 21 W 1010,4 10 0 0,0
15.01.2019 03:00:00 1,9 -2,0 0,2 0,6 2,5 5,8 25 14 43 23 WNW 1010,1 50 0 0,0
15.01.2019 02:00:00 1,7 -2,1 0,7 0,6 2,6 5,8 28 15 52 28 W 1009,6 50 0 0,0
15.01.2019 01:00:00 1,3 -2,6 0,5 0,6 2,6 5,8 25 13 41 22 W 1009,4 50 0 0,0
15.01.2019 00:00:00 0,5 -3,1 -0,6 0,7 2,7 5,8 24 13 38 20 W 1009,4 10 0 0,0
14.01.2019 23:00:00 0,6 -3,4 -0,1 0,7 2,8 5,8 25 14 38 20 W 1009,2 50 0 0,0
14.01.2019 22:00:00 0,6 -3,5 -1,1 0,8 2,9 5,8 22 12 42 23 W 1009,1 10 0 0,0
14.01.2019 21:00:00 0,8 -3,8 -0,6 0,9 3,0 5,8 27 15 46 25 W 1008,5 50 0 0,0
14.01.2019 20:00:00 0,8 -4,8 -1,0 0,9 3,1 5,8 28 15 47 25 W 1007,7 10 0 0,0
14.01.2019 19:00:00 0,8 -5,4 -1,0 1,1 3,3 5,8 26 14 39 21 W 1006,9 10 0 0,0
14.01.2019 18:00:00 1,1 -5,6 -0,8 1,2 3,4 5,8 24 13 37 20 W 1006,3 50 0 0,0
14.01.2019 17:00:00 1,3 -6,7 -0,6 1,4 3,5 5,8 23 12 41 22 WNW 1005,5 50 0 0,0
14.01.2019 16:00:00 1,5 -4,9 -0,1 1,9 3,6 5,8 18 10 52 28 WNW 1004,3 50 15 0,0
14.01.2019 15:00:00 1,3 -4,7 1,8 3,0 3,6 5,8 24 13 57 31 NNW 1002,9 40 25 0,0
14.01.2019 14:00:00 2,7 -5,9 2,4 2,7 3,6 5,8 26 14 53 29 NW 1001,6 10 0 0,0
14.01.2019 13:00:00 3,1 -6,1 3,1 3,1 3,6 5,8 29 16 59 32 NW 1001,0 10 33 0,0
14.01.2019 12:00:00 3,2 -4,9 4,4 2,7 3,6 5,8 28 15 61 33 WNW 1000,3 40 55 0,0
14.01.2019 11:00:00 2,8 -5,2 4,0 1,9 3,8 5,8 29 16 53 28 WNW 1000,3 10 58 0,0
14.01.2019 10:00:00 2,2 -4,2 1,1 1,7 4,0 5,8 29 16 53 28 WNW 999,7 10 2 0,0
14.01.2019 09:00:00 2,4 -4,8 1,1 1,8 4,2 5,8 32 18 51 27 WNW 998,7 40 0 0,0
14.01.2019 08:00:00 1,5 -1,7 1,2 2,3 4,4 5,8 34 18 65 35 NW 997,9 6 0 0,0
14.01.2019 07:00:00 3,1 -3,5 1,8 2,5 4,6 5,7 27 15 51 27 WNW 996,7 40 0 0,0
14.01.2019 06:00:00 3,1 -3,3 1,3 3,2 4,7 5,7 28 15 63 34 WNW 996,1 10 0 0,0
14.01.2019 05:00:00 4,2 -0,8 3,4 3,7 4,9 5,7 28 15 57 31 NW 994,8 10 0 0,0
14.01.2019 04:00:00 4,6 -0,2 3,6 4,0 5,0 5,7 28 15 55 30 WNW 993,3 10 0 0,0
14.01.2019 03:00:00 4,5 0,7 3,3 4,2 5,1 5,7 31 17 54 29 WNW 991,9 10 0 0,0
14.01.2019 02:00:00 4,9 0,5 3,7 4,5 5,2 5,7 28 15 59 32 WNW 990,3 10 0 0,0
14.01.2019 01:00:00 5,9 1,6 4,4 4,8 5,3 5,7 31 17 52 28 WNW 988,7 40 0 0,0
14.01.2019 00:00:00 6,2 3,3 4,8 5,3 5,3 5,7 31 17 52 28 WNW 987,9 10 0 0,0
13.01.2019 23:00:00 6,1 3,9 5,1 5,4 5,4 5,7 28 15 53 28 W 987,7 35 0 0,1
13.01.2019 22:00:00 6,4 3,7 5,3 5,7 5,4 5,7 28 15 48 26 W 987,6 10 0 0,5
13.01.2019 21:00:00 6,5 4,7 5,6 6,0 5,4 5,7 26 14 51 27 WNW 987,4 10 0 0,4
13.01.2019 20:00:00 7,3 5,3 6,3 6,2 5,3 5,7 24 13 46 25 WNW 987,1 10 0 1,2
13.01.2019 19:00:00 7,9 7,0 7,2 6,3 5,2 5,7 25 14 44 24 W 987,1 6 0 1,7
13.01.2019 18:00:00 8,0 6,8 7,3 6,2 5,2 5,7 24 13 42 23 W 988,1 22 0 0,0
13.01.2019 17:00:00 8,0 7,0 7,3 6,2 5,1 5,7 28 15 41 22 W 989,5 10 0 0,0
13.01.2019 16:00:00 7,7 6,8 7,3 6,0 5,0 5,7 28 15 40 22 W 990,5 10 0 0,1
13.01.2019 15:00:00 6,8 6,2 6,5 5,8 4,9 5,6 26 14 44 24 WSW 991,5 6 0 0,1
13.01.2019 14:00:00 6,2 5,6 6,0 5,8 4,8 5,6 31 17 47 25 WSW 992,6 3,0 0 0,9
13.01.2019 13:00:00 6,2 5,6 6,0 5,7 4,7 5,6 31 17 49 26 WSW 994,5 3,5 0 0,4
13.01.2019 12:00:00 6,2 5,3 5,9 5,4 4,6 5,6 28 15 44 24 WSW 996,4 8 0 0,6
13.01.2019 11:00:00 6,1 5,1 5,7 5,1 4,6 5,6 29 15 39 21 WSW 998,3 10 0 0,3
13.01.2019 10:00:00 6,1 4,4 5,7 4,9 4,5 5,6 22 12 34 18 WSW 999,6 10 0 0,0
13.01.2019 09:00:00 5,7 4,5 5,1 4,7 4,5 5,6 22 12 35 19 W 1000,3 10 0 0,0
13.01.2019 08:00:00 5,5 4,5 5,0 4,7 4,5 5,6 23 13 36 20 W 1001,0 10 0 0,1
13.01.2019 07:00:00 5,4 4,6 4,9 4,6 4,4 5,6 22 12 31 17 W 1001,5 5 0 0,2
13.01.2019 06:00:00 5,3 4,7 4,8 4,5 4,4 5,6 21 11 29 16 W 1001,8 10 0 0,0
13.01.2019 05:00:00 5,3 4,5 4,8 4,5 4,4 5,6 20 11 31 17 W 1002,3 8 0 0,1
13.01.2019 04:00:00 5,5 3,5 4,7 4,5 4,4 5,6 18 10 39 21 W 1002,5 5 0 0,0
13.01.2019 03:00:00 5,6 3,4 4,5 4,6 4,4 5,6 26 14 46 25 W 1002,6 40 0 0,0
13.01.2019 02:00:00 5,6 4,0 4,8 4,7 4,4 5,6 24 13 41 22 W 1002,4 10 0 0,0
13.01.2019 01:00:00 5,8 4,1 4,9 4,7 4,4 5,6 29 16 40 22 W 1002,4 10 0 0,1
13.01.2019 00:00:00 5,5 4,5 4,9 4,6 4,3 5,6 24 13 38 20 W 1002,9 10 0 0,2
12.01.2019 23:00:00 5,5 4,6 4,9 4,6 4,3 5,6 19 10 35 19 W 1003,4 8 0 0,3
12.01.2019 22:00:00 5,7 4,4 5,0 4,6 4,3 5,6 26 14 39 21 W 1003,8 15 0 0,0
12.01.2019 21:00:00 5,7 4,4 5,0 4,6 4,3 5,6 25 13 38 20 W 1004,2 25 0 0,3
12.01.2019 20:00:00 5,3 4,7 4,8 4,5 4,2 5,6 20 11 40 21 WSW 1004,4 9 0 0,0
12.01.2019 19:00:00 5,1 4,5 4,7 4,5 4,2 5,6 29 16 41 22 WSW 1004,6 5 0 0,8
12.01.2019 18:00:00 4,9 4,1 4,5 4,5 4,2 5,6 29 16 42 23 WSW 1005,2 12 0 1,2
12.01.2019 17:00:00 4,8 4,0 4,4 4,6 4,2 5,6 29 16 45 24 WSW 1006,2 8 0 0,2
12.01.2019 16:00:00 4,9 3,7 4,4 4,8 4,1 5,6 26 14 40 21 WSW 1007,2 4,5 0 0,6
12.01.2019 15:00:00 5,5 3,2 4,7 5,1 4,0 5,6 30 16 40 21 WSW 1008,3 15 0 0,0
12.01.2019 14:00:00 5,9 3,4 5,5 5,2 3,9 5,6 29 16 42 23 W 1009,3 40 0 0,0
12.01.2019 13:00:00 5,7 4,0 5,3 4,9 3,7 5,6 22 12 44 24 W 1010,6 10 0 0,2

tt = Température de l'air
td = dewpoint
tt 5cm = Température de l'air 5cm
tt -5cm = Température de l'air -5cm
tt -20cm = Température de l'air -20cm
tt -100cm = Température de l'air -100cm
ff = Vitesse du vent
fx = gusts
dd = Direction du vent
ppp = reduced air pressure
vv = visibility
sd = Ensoleillement
rr = Quantités de précipitations

stations d'obs. à proximité